Tracking 30743 objects as of 21-Jun-2025
HD Live streaming from Space Station
objects crossing your sky now

SL-6 R/B(2)

Track SL-6 R/B(2) now!


NORAD ID: 10155
Int'l Code: 1977-054D
Perigee: 1,210.0 km
Apogee: 32,040.0 km
Inclination: 64.2 °
Period: 578.4 minutes
Semi major axis: 22996 km
RCS: 7.637 m2 (large)
Launch date: June 24, 1977
Source: Commonwealth of Independent States (former USSR) (CIS)
Launch site: TYURATAM MISSILE AND SPACE COMPLEX (TTMTR)

Note: This is a ROCKET BODY
Your satellite tracking list
Your tracking list is empty




NASA's NSSDC Master Catalog

Two Line Element Set (TLE):
1 10155U 77054D   25172.30463144  .00000111  00000-0  11456-1 0  9998
2 10155  64.1586 262.2599 6703320 281.4876  15.3771  2.48956960109773
Source of the keplerian elements: AFSPC